Flag for USA

Past Weather in Austin, Texas, USA — Yesterday and Last 2 Weeks

Currently: 65 °F. Light rain. Partly cloudy. (Weather station: Camp Mabry / Austin City, USA). See more current weather

Past Weather in Austin — Graph

°F

Austin Temperature Yesterday

Maximum temperature yesterday: 70 °F (at 11:51 pm)
Minimum temperature yesterday: 61 °F (at 12:51 am)
Average temperature yesterday: 65 °F

High & Low Weather Summary for the Past Weeks

 TemperatureHumidityPressure
High78 °F (Jan 22, 3:51 pm)97% (Jan 24, 3:51 pm)30.51 "Hg (Jan 24, 3:51 pm)
Low31 °F (Jan 12, 4:03 am)12% (Jan 15, 2:51 pm)29.64 "Hg (Jan 25, 2:51 am)
Average52 °F72%30.13 "Hg
* Reported Jan 10 6:37 am — Jan 25 6:38 am, Austin. Weather by CustomWeather, © 2021

Note: Actual official high and low records may vary slightly from our data, if they occured in-between our weather recording intervals... More about our weather records

Austin Weather History for the Previous 24 Hours

Scroll right to see more
 ConditionsComfort  
Time TempWeatherWind HumidityBarometerVisibility
6:38 am
Mon, Jan 25
68 °FFog.No wind93%29.70 "Hg1 mi
6:13 am68 °FFog.3 mph93%29.69 "Hg2 mi
5:51 am69 °FFog.No wind90%29.67 "Hg1 mi
5:33 am69 °FFog.No wind90%29.69 "Hg2 mi
4:51 am70 °FLight rain. Fog.3 mph87%29.67 "Hg2 mi
4:21 am72 °FOvercast.No wind78%29.69 "Hg8 mi
4:05 am72 °FMostly cloudy.6 mph78%29.67 "Hg9 mi
3:35 am72 °FMild.12 mph78%29.66 "Hg9 mi
3:02 am72 °FMostly cloudy.N/A78%29.66 "Hg10 mi
2:51 am72 °FMild.9 mph78%29.64 "Hg10 mi
2:12 am72 °FMild.7 mph78%29.67 "Hg10 mi
1:51 am72 °FMostly cloudy.13 mph78%29.65 "Hg9 mi
1:03 am71 °FOvercast.10 mph84%29.67 "Hg8 mi
12:51 am71 °FOvercast.9 mph84%29.65 "Hg8 mi
11:51 pm
Sun, Jan 24
70 °FOvercast.9 mph87%29.66 "Hg7 mi
10:51 pm69 °FMostly cloudy.10 mph87%29.68 "Hg8 mi
9:51 pm69 °FOvercast.12 mph87%29.70 "Hg9 mi
8:51 pm68 °FOvercast.9 mph90%29.71 "Hg8 mi
7:51 pm68 °FMostly cloudy.10 mph93%29.71 "Hg8 mi
6:51 pm68 °FMostly cloudy.10 mph93%29.73 "Hg7 mi
5:51 pm69 °FFog.5 mph93%29.75 "Hg5 mi
5:33 pm69 °FFog.7 mph93%29.77 "Hg4 mi
4:55 pm69 °FFog.8 mph93%29.78 "Hg3 mi
4:51 pm69 °FFog.8 mph93%29.76 "Hg2 mi
4:13 pm68 °FFog.6 mph93%29.79 "Hg2 mi
3:51 pm67 °FFog.5 mph97%29.78 "Hg2 mi
3:37 pm67 °FFog.6 mph93%29.80 "Hg1 mi
3:14 pm67 °FFog.3 mph93%29.81 "Hg1 mi
2:51 pm66 °FFog.3 mph93%29.78 "Hg0 mi
1:51 pm65 °FFog.3 mph94%29.82 "Hg0 mi
1:19 pm65 °FFog.5 mph94%29.85 "Hg1 mi
12:51 pm64 °FFog.3 mph94%29.86 "Hg0 mi
12:01 pm63 °FFog.No wind93%29.91 "Hg0 mi
11:38 am63 °FLight rain. Fog.No wind93%29.92 "Hg1 mi
10:51 am62 °FLight rain. Fog.No wind96%29.92 "Hg0 mi
10:17 am62 °FFog.No wind96%29.95 "Hg1 mi
9:51 am62 °FFog.No wind93%29.93 "Hg1 mi
8:51 am62 °FLight rain. Fog.No wind93%29.93 "Hg1 mi
Weather by CustomWeather, © 2021

See weather overview